Regional Weather Roundup
Issued by NWS

Home | Current Version | Previous Version | Text Only | Print | Product List | Glossary On
Versions: 1 2 3 4 5 6 7 8 9 10 11 12 13 14 15 16 17 18 19 20 21 22 23 24 25 26 27 28 29 30 31 32 33 34 35 36 37 38 39 40 41 42 43 44 45 46 47 48 49 50
000
ASUS43 KTOP 202359
RWRKS

WEATHER ROUNDUP FOR KANSAS
NATIONAL WEATHER SERVICE GOODLAND KS
700 PM CDT WED AUG 20 2014

NOTE:  "FAIR" INDICATES FEW OR NO CLOUDS BELOW 12,000 FEET WITH NO
SIGNIFICANT WEATHER AND/OR OBSTRUCTIONS TO VISIBILITY.

KSZ001>006-013>018-027>032-041>047-210100-
NORTHWEST KANSAS

CITY           SKY/WX    TMP DP  RH WIND       PRES   REMARKS
GOODLAND       PTSUNNY   87  60  40 NE8       29.79S
6HR MIN TEMP:  87; 6HR MAX TEMP:  97;

HAYS           PTSUNNY   93  63  36 S20G25    29.73F
HILL CITY      PTSUNNY   95  62  33 S13G23    29.71S HX  96
6HR MIN TEMP:  93; 6HR MAX TEMP: 100;

RUSSELL        MOSUNNY   94  63  35 S20G29    29.73F HX  95
6HR MIN TEMP:  91; 6HR MAX TEMP:  97;

$$

KSZ061>065-074>080-084>089-210100-
SOUTHWEST KANSAS

CITY           SKY/WX    TMP DP  RH WIND       PRES   REMARKS
DODGE CITY     SUNNY     94  59  31 S17       29.78S
6HR MIN TEMP:  90; 6HR MAX TEMP:  97;

ELKHART          N/A     95  56  27 S13         N/A
GARDEN CITY    MOSUNNY   93  58  30 S17       29.76S
6HR MIN TEMP:  89; 6HR MAX TEMP:  99;

GREAT BEND     MOSUNNY   97  63  32 S22G29    29.75S HX  98
LIBERAL        SUNNY     97  57  26 S24G30    29.79S HX  95
$$

KSZ066>073-081>083-090>101-210100-
SOUTHEAST KANSAS

CITY           SKY/WX    TMP DP  RH WIND       PRES   REMARKS
CHANUTE        SUNNY     90  65  43 S18       29.86F
6HR MIN TEMP:  90; 6HR MAX TEMP:  95;

COFFEYVILLE    SUNNY     90  68  48 S12       29.86F
6HR MIN TEMP:  90; 6HR MAX TEMP:  95;

HUTCHINSON     MOSUNNY   94  65  38 S20G29    29.78F HX  96
6HR MIN TEMP:  93; 6HR MAX TEMP:  99;

NEWTON         SUNNY     90  64  43 S22G29    29.85S
PARSONS        SUNNY     89  69  51 S9        29.87F
6HR MIN TEMP:  89; 6HR MAX TEMP:  94;

WICHITA INTL   MOSUNNY   91  66  43 S15       29.80S
6HR MIN TEMP:  91; 6HR MAX TEMP:  96;

WICHITA JABRA  SUNNY     90  65  43 S18G28    29.81F
6HR MIN TEMP:  89; 6HR MAX TEMP:  93;

WINFIELD       SUNNY     91  67  44 S18G26    29.83F
6HR MIN TEMP:  91; 6HR MAX TEMP:  95;

$$

KSZ007>012-019>026-033>040-048>060-102>105-210100-
NORTHEAST KANSAS

CITY           SKY/WX    TMP DP  RH WIND       PRES   REMARKS
CONCORDIA      PTSUNNY   90  70  51 S14       29.75F HX  95
6HR MIN TEMP:  89; 6HR MAX TEMP:  93;

EMPORIA        SUNNY     91  69  48 S14       29.82S HX  96
6HR MIN TEMP:  91; 6HR MAX TEMP:  94;

LAWRENCE       SUNNY     91  71  51 S15       29.81S HX  97
6HR MIN TEMP:  90; 6HR MAX TEMP:  97;

MANHATTAN      MOSUNNY   93  69  45 S13       29.77S HX  98
6HR MIN TEMP:  93; 6HR MAX TEMP:  98;

OLATHE IND     SUNNY     90  70  51 S15       29.84F HX  95
6HR MIN TEMP:  90; 6HR MAX TEMP:  95;

OLATHE EXE     SUNNY     88  72  58 S12       29.83F
6HR MIN TEMP:  87; 6HR MAX TEMP:  93;

SALINA         MOSUNNY   93  69  45 S18       29.76S HX  98
6HR MIN TEMP:  92; 6HR MAX TEMP:  97;

TOPEKA BILLARD SUNNY     93  70  46 S14G21    29.80S HX  99
6HR MIN TEMP:  92; 6HR MAX TEMP:  96;

TOPEKA FORBES  SUNNY     92  70  48 S18G24    29.80F HX  97
6HR MIN TEMP:  92; 6HR MAX TEMP:  97;

$$


USA.gov is the U.S. government's official web portal to all federal, state and local government web resources and services.